Location: Home
(42.5358°N, 72.7383°W)
Time: 00:39:34
(UTC-05:00)

Vanguard 1 - Pass Details

Date: 01 December 2021
Orbit: 652 x 3830 km, 34.2° (Epoch: 21 January)

Event Time Altitude Azimuth Distance (km) Brightness Sun altitude
Rises 03:35:24 0° 267° (W) 7,972 - -37.3°
Reaches altitude 10° 03:41:02 10° 265° (W) 6,901 - -36.2°
Exits shadow 03:55:39 45° 247° (WSW) 4,111 12.7 -33.5°
Maximum altitude 04:02:51 63° 192° (SSW) 3,203 12.4 -32.2°
Drops below altitude 10° 04:16:10 10° 115° (ESE) 4,473 14.2 -29.8°
Sets 04:18:58 0° 112° (ESE) 5,139 14.8 -29.3°
